Regional Weather Roundup
Issued by NWS

Home | Current Version | Previous Version | Text Only | Print | Product List | Glossary On
Versions: 1 2 3 4 5 6 7 8 9 10 11 12 13 14 15 16 17 18 19 20 21 22 23 24 25 26 27 28
000
ASUS45 KREV 200410
RWRNV
NEVADA REGIONAL WEATHER ROUNDUP
NATIONAL WEATHER SERVICE RENO NV
900 PM PDT TUE SEP 19 2017

NOTE: "FAIR" INDICATES FEW OR NO CLOUDS BELOW 12,000 FEET WITH NO
SIGNIFICANT WEATHER AND/OR OBSTRUCTIONS TO VISIBILITY.

NVZ001-003-004-200500-
WESTERN NEVADA

CITY           SKY/WX    TMP DP  RH WIND       PRES   REMARKS
RENO           PTCLDY    61  29  29 NW10      29.97R
CARSON CITY    FAIR      57  28  33 NE6       30.00R
MINDEN         FAIR      57  34  41 NE10      30.00R
SLIDE MTN        N/A     36  28  75 W22         N/A
FALLON         PTCLDY    56  29  35 W6        29.94R
LOVELOCK       CLEAR     50  31  48 S3        29.93R
HAWTHORNE      CLEAR     63  34  34 NW14      29.95R
$$

NVZ002-CAZ072-073-200500-
NORTHERN AND CENTRAL SIERRA

CITY           SKY/WX    TMP DP  RH WIND       PRES   REMARKS
S. LAKE TAHOE  CLEAR     49  35  58 SW7       30.06R
TRUCKEE        CLEAR     39  28  65 S3        30.07S
SQUAW VLY 8000   N/A     41  27  56 SW13        N/A
SUSANVILLE     PTCLDY    55  34  44 NW14G21   29.99R
BLUE CANYON    CLEAR     49  36  61 N3        30.09R
MAMMOTH LAKES  FAIR      55  31  40 NW6       30.09R
BRIDGEPORT     FAIR      52  29  41 W3        30.06R
$$

NVZ030-031-036-200500-
NORTHERN NEVADA

CITY           SKY/WX    TMP DP  RH WIND       PRES   REMARKS
ELKO           CLEAR     46  20  35 CALM      29.96R
WINNEMUCCA     CLEAR     46  24  42 S5        29.93F
WENDOVER       CLEAR     59  19  21 VRB6      29.92R
$$

NVZ035-037-200500-
CENTRAL NEVADA

CITY           SKY/WX    TMP DP  RH WIND       PRES   REMARKS
ELY            CLEAR     50  21  32 NW6       30.00R
EUREKA           N/A     48  22  35 SW6       30.00R
$$

NVZ013-014-200500-
SOUTH CENTRAL NEVADA

CITY           SKY/WX    TMP DP  RH WIND       PRES   REMARKS
TONOPAH        CLEAR     64  29  26 N12       29.95R
$$

NVZ017-020-022-200500-
SOUTHERN NEVADA

CITY           SKY/WX    TMP DP  RH WIND       PRES   REMARKS
LAS VEGAS      CLEAR     83  40  21 SW5       29.73R
N. LAS VEGAS   CLEAR     83  40  21 S10       29.72R
NELLIS AFB     CLEAR     83  40  21 S8        29.71R
HENDERSON      CLEAR     78  40  25 S9        29.77R
MERCURY        CLEAR     75  40  28 S8        29.79R
$$




USA.gov is the U.S. government's official web portal to all federal, state and local government web resources and services.